Regional Weather Roundup
Issued by NWS

Home | Current Version | Previous Version | Graphics & Text | Print | Product List | Glossary On
Versions: 1 2 3 4 5 6 7 8 9 10 11 12 13 14 15 16 17 18 19 20 21 22 23 24 25 26 27 28 29 30 31 32 33 34 35 36 37 38 39 40 41 42 43 44 45 46 47 48 49 50
000
ASUS43 KLMK 250610
RWRKY
KENTUCKY REGIONAL WEATHER ROUNDUP
NATIONAL WEATHER SERVICE LOUISVILLE KY
200 AM EDT FRI JUL 25 2014

NOTE "FAIR" INDICATES FEW OR NO CLOUDS BELOW 12,000 FEET
WITH NO SIGNIFICANT WEATHER AND/OR OBSTRUCTIONS TO VISIBILITY.

KYZ001>023-026-027-061>063-070>075-250700-
WESTERN AND SOUTH CENTRAL KENTUCKY

CITY           SKY/WX    TMP DP  RH WIND       PRES   REMARKS
PADUCAH        CLEAR     60  57  89 CALM      30.03F
HENDERSON      CLEAR     57  54  88 CALM      30.03F
OWENSBORO      PTCLDY    62  55  77 CALM      30.05S
HOPKINSVILLE   CLEAR     64  56  77 NE2       30.04S
BOWLING GREEN  PTCLDY    61  55  81 CALM      30.05S
GLASGOW        CLEAR     60  53  80 CALM      30.05S
$$

KYZ024-025-028>034-038-045-046-053-250700-
NORTH CENTRAL KENTUCKY

CITY           SKY/WX    TMP DP  RH WIND       PRES   REMARKS
LOUISVILLE/SDF CLEAR     65  55  70 CALM      30.05S
LOUISVILLE/LOU CLEAR     65  55  70 CALM      30.06S
FORT KNOX      CLEAR     58  56  92 NE3       30.04S
$$

KYZ035>037-039>044-047>052-055>060-089>105-250700-
NORTHEAST KENTUCKY

CITY           SKY/WX    TMP DP  RH WIND       PRES   REMARKS
LEXINGTON      CLEAR     57  54  89 CALM      30.06S
COVINGTON      CLEAR     66  51  58 NE8       30.07S
FRANKFORT      CLEAR     61  56  83 N3        30.06R
$$

KYZ054-064>069-076>088-106>120-250700-
SOUTHEAST KENTUCKY

CITY           SKY/WX    TMP DP  RH WIND       PRES   REMARKS
JACKSON        PTCLDY    61  59  93 CALM      30.06F FOG
LONDON         FOG       60  58  92 CALM      30.06F VSB 1/4
SOMERSET       FOG       61  61 100 CALM      30.07F VSB 1/4
MIDDLESBORO    CLOUDY    62  61  97 CALM      30.08F
MONTICELLO     FOG       59  59 100 CALM      30.08S VSB<1/4
$$




USA.gov is the U.S. government's official web portal to all federal, state and local government web resources and services.